sat.trackr.live / text

‹ back to catalog

STARLINK-11440 [DTC]

NORAD 62513 · 2025-004C

PAYLOAD ACTIVE UNKNOWN

§ Identity

Operator
Country
US
Launch date
2025-01-08
Launch site
AFETR
Launch vehicle
Mass (kg)
RCS (m²)

Purposes: comms

External: N2YO · Heavens-Above · Gunter

§ Orbital elements

Epoch: 2026-09-21T06:06:24.124032Z

Period
91.69 min
Inclination
43.0006°
Eccentricity
0.0001186
Mean motion
15.70579708 rev/d
Perigee alt
356.4 km
Apogee alt
358.0 km
Semi-major
6,735.4 km
B*
3.2477e-3
RAAN
332.1242°
Arg perigee
267.3792°
Mean anomaly
92.6939°
Rev number
9,796

§ Raw data

STARLINK-11440 [DTC]1 62513U 25004C   26264.25444588  .00434063  00000+0  32477-2 0  99922 62513  43.0006 332.1242 0001186 267.3792  92.6939 15.70579708 97969

JSON: /api/v1/satellites/62513 · /tle

For live sub-satellite position, see the globe view (requires WebGL).

§ Visibility from observer

Set your observer location to see the next 7 days of passes ≥ 10°. The values pass through the URL so the page stays shareable.

No JS? Fill the form by hand. The geolocation button needs JavaScript.